Time,TemperatureF,DewpointF,PressureIn,WindDirection,WindDirectionDegrees,WindSpeedMPH,WindSpeedGustMPH,Humidity,HourlyPrecipIn,Conditions,Clouds,dailyrainin,SolarRadiationWatts/m^2,SoftwareType,DateUTC
2013-04-09 00:03:00,57.0,45.3,29.96,NNE,21,1.0,1.0,65,0.00,,,0.00,0,Wunderground v.1.15,2013-04-09 04:03:00,
2013-04-09 00:09:00,57.0,45.3,29.96,North,360,0.0,1.0,65,0.00,,,0.00,0,Wunderground v.1.15,2013-04-09 04:09:00,
2013-04-09 00:13:00,56.9,45.3,29.96,NNE,21,0.0,2.0,65,0.00,,,0.00,0,Wunderground v.1.15,2013-04-09 04:13:00,
2013-04-09 00:21:00,56.9,45.7,29.96,NNE,21,0.0,0.0,66,0.00,,,0.00,0,Wunderground v.1.15,2013-04-09 04:21:00,
2013-04-09 00:23:00,56.9,45.7,29.96,NNE,21,0.0,0.0,66,0.00,,,0.00,0,Wunderground v.1.15,2013-04-09 04:23:00,
2013-04-09 00:33:00,56.9,45.7,29.95,NNE,20,0.0,0.0,66,0.00,,,0.00,0,Wunderground v.1.15,2013-04-09 04:33:00,
2013-04-09 00:39:00,56.7,45.5,29.95,North,360,0.0,0.0,66,0.00,,,0.00,0,Wunderground v.1.15,2013-04-09 04:39:00,
2013-04-09 00:48:00,56.7,45.9,29.94,North,360,0.0,0.0,67,0.00,,,0.00,0,Wunderground v.1.15,2013-04-09 04:48:00,
2013-04-09 00:54:00,56.7,45.9,29.94,NNE,21,0.0,0.0,67,0.00,,,0.00,0,Wunderground v.1.15,2013-04-09 04:54:00,
2013-04-09 01:00:00,56.6,45.8,29.94,North,360,0.0,0.0,67,0.00,,,0.00,0,Wunderground v.1.15,2013-04-09 05:00:00,
2013-04-09 01:08:00,56.6,46.2,29.94,North,360,0.0,0.0,68,0.00,,,0.00,0,Wunderground v.1.15,2013-04-09 05:08:00,
2013-04-09 01:18:00,56.5,46.1,29.94,North,360,0.0,0.0,68,0.00,,,0.00,0,Wunderground v.1.15,2013-04-09 05:18:00,
2013-04-09 01:26:00,56.5,46.4,29.94,North,360,0.0,0.0,69,0.00,,,0.00,0,Wunderground v.1.15,2013-04-09 05:26:00,
2013-04-09 01:37:00,56.3,46.3,29.93,NNE,21,0.0,0.0,69,0.00,,,0.00,0,Wunderground v.1.15,2013-04-09 05:37:00,
2013-04-09 01:43:00,56.3,46.3,29.93,NNE,20,0.0,0.0,69,0.00,,,0.00,0,Wunderground v.1.15,2013-04-09 05:43:00,
2013-04-09 01:49:00,56.2,46.5,29.93,North,360,0.0,0.0,70,0.00,,,0.00,0,Wunderground v.1.15,2013-04-09 05:49:00,
2013-04-09 01:56:00,56.2,46.5,29.93,NNE,21,0.0,0.0,70,0.00,,,0.00,0,Wunderground v.1.15,2013-04-09 05:56:00,
2013-04-09 02:01:00,56.2,46.5,29.93,North,360,0.0,0.0,70,0.00,,,0.00,0,Wunderground v.1.15,2013-04-09 06:01:00,
2013-04-09 02:07:00,56.0,46.4,29.93,NNE,21,0.0,0.0,70,0.00,,,0.00,0,Wunderground v.1.15,2013-04-09 06:07:00,
2013-04-09 02:13:00,56.0,46.7,29.93,North,360,0.0,0.0,71,0.00,,,0.00,0,Wunderground v.1.15,2013-04-09 06:13:00,
2013-04-09 02:19:00,56.0,46.7,29.93,North,360,0.0,0.0,71,0.00,,,0.00,0,Wunderground v.1.15,2013-04-09 06:19:00,
2013-04-09 02:27:00,55.9,47.0,29.93,NNE,20,0.0,0.0,72,0.00,,,0.00,0,Wunderground v.1.15,2013-04-09 06:27:00,
2013-04-09 02:33:00,55.9,47.0,29.91,NNE,20,0.0,0.0,72,0.00,,,0.00,0,Wunderground v.1.15,2013-04-09 06:33:00,
2013-04-09 02:39:00,55.7,47.2,29.91,NNE,20,0.0,2.0,73,0.00,,,0.00,0,Wunderground v.1.15,2013-04-09 06:39:00,
2013-04-09 02:45:00,55.7,47.2,29.91,NNE,20,0.0,0.0,73,0.00,,,0.00,0,Wunderground v.1.15,2013-04-09 06:45:00,
2013-04-09 02:53:00,55.6,47.4,29.91,NNE,21,0.0,0.0,74,0.00,,,0.00,0,Wunderground v.1.15,2013-04-09 06:53:00,
2013-04-09 02:59:00,55.6,47.4,29.91,North,360,1.0,1.0,74,0.00,,,0.00,0,Wunderground v.1.15,2013-04-09 06:59:00,
2013-04-09 03:05:00,55.4,47.6,29.91,North,360,1.0,2.0,75,0.00,,,0.00,0,Wunderground v.1.15,2013-04-09 07:05:00,
2013-04-09 03:11:00,55.4,47.6,29.91,North,360,1.0,1.0,75,0.00,,,0.00,0,Wunderground v.1.15,2013-04-09 07:11:00,
2013-04-09 03:17:00,55.3,47.5,29.90,North,360,0.0,2.0,75,0.00,,,0.00,0,Wunderground v.1.15,2013-04-09 07:17:00,
2013-04-09 03:23:00,55.3,47.2,29.90,North,360,0.0,0.0,74,0.00,,,0.00,0,Wunderground v.1.15,2013-04-09 07:23:00,
2013-04-09 03:28:00,55.1,47.0,29.90,North,360,0.0,0.0,74,0.00,,,0.00,0,Wunderground v.1.15,2013-04-09 07:28:00,
2013-04-09 03:35:00,55.1,47.0,29.90,North,360,0.0,0.0,74,0.00,,,0.00,0,Wunderground v.1.15,2013-04-09 07:35:00,
2013-04-09 03:42:00,55.0,47.2,29.90,North,360,0.0,0.0,75,0.00,,,0.00,0,Wunderground v.1.15,2013-04-09 07:42:00,
2013-04-09 03:48:00,54.8,47.0,29.90,North,360,0.0,0.0,75,0.00,,,0.00,0,Wunderground v.1.15,2013-04-09 07:48:00,
2013-04-09 03:54:00,54.7,46.9,29.90,North,360,0.0,0.0,75,0.00,,,0.00,0,Wunderground v.1.15,2013-04-09 07:54:00,
2013-04-09 04:00:00,54.5,46.7,29.90,North,360,0.0,0.0,75,0.00,,,0.00,0,Wunderground v.1.15,2013-04-09 08:00:00,
2013-04-09 04:08:00,54.4,46.6,29.90,North,360,0.0,0.0,75,0.00,,,0.00,0,Wunderground v.1.15,2013-04-09 08:08:00,
2013-04-09 04:14:00,54.2,46.4,29.90,North,360,0.0,0.0,75,0.00,,,0.00,0,Wunderground v.1.15,2013-04-09 08:14:00,
2013-04-09 04:20:00,54.1,46.3,29.90,North,360,0.0,0.0,75,0.00,,,0.00,0,Wunderground v.1.15,2013-04-09 08:20:00,
2013-04-09 04:26:00,53.9,46.5,29.90,North,360,0.0,0.0,76,0.00,,,0.00,0,Wunderground v.1.15,2013-04-09 08:26:00,
2013-04-09 04:31:00,53.8,46.8,29.89,North,360,0.0,0.0,77,0.00,,,0.00,0,Wunderground v.1.15,2013-04-09 08:31:00,
2013-04-09 04:37:00,53.6,46.6,29.89,North,360,0.0,0.0,77,0.00,,,0.00,0,Wunderground v.1.15,2013-04-09 08:37:00,
2013-04-09 04:43:00,53.5,46.5,29.89,North,360,0.0,0.0,77,0.00,,,0.00,0,Wunderground v.1.15,2013-04-09 08:43:00,
2013-04-09 04:49:00,53.3,46.6,29.89,North,360,0.0,0.0,78,0.00,,,0.00,0,Wunderground v.1.15,2013-04-09 08:49:00,
2013-04-09 04:57:00,53.1,46.4,29.89,North,360,0.0,0.0,78,0.00,,,0.00,0,Wunderground v.1.15,2013-04-09 08:57:00,
2013-04-09 05:03:00,53.1,46.4,29.89,North,360,0.0,0.0,78,0.00,,,0.00,0,Wunderground v.1.15,2013-04-09 09:03:00,
2013-04-09 05:09:00,52.9,46.6,29.89,North,360,0.0,0.0,79,0.00,,,0.00,0,Wunderground v.1.15,2013-04-09 09:09:00,
2013-04-09 05:16:00,52.8,46.5,29.90,North,360,0.0,0.0,79,0.00,,,0.00,0,Wunderground v.1.15,2013-04-09 09:16:00,
2013-04-09 05:23:00,52.5,46.2,29.90,North,360,0.0,0.0,79,0.00,,,0.00,0,Wunderground v.1.15,2013-04-09 09:23:00,
2013-04-09 05:29:00,52.3,46.0,29.90,North,360,0.0,0.0,79,0.00,,,0.00,0,Wunderground v.1.15,2013-04-09 09:29:00,
2013-04-09 05:40:00,52.2,46.2,29.90,North,360,0.0,0.0,80,0.00,,,0.00,0,Wunderground v.1.15,2013-04-09 09:40:00,
2013-04-09 05:47:00,52.0,46.3,29.90,North,360,0.0,0.0,81,0.00,,,0.00,0,Wunderground v.1.15,2013-04-09 09:47:00,
2013-04-09 05:53:00,52.0,46.3,29.90,North,360,0.0,0.0,81,0.00,,,0.00,0,Wunderground v.1.15,2013-04-09 09:53:00,
2013-04-09 05:59:00,52.0,46.7,29.90,North,360,0.0,0.0,82,0.00,,,0.00,0,Wunderground v.1.15,2013-04-09 09:59:00,
2013-04-09 06:07:00,52.0,46.7,29.90,North,360,0.0,0.0,82,0.00,,,0.00,0,Wunderground v.1.15,2013-04-09 10:07:00,
2013-04-09 06:13:00,52.0,47.0,29.90,North,360,0.0,0.0,83,0.00,,,0.00,0,Wunderground v.1.15,2013-04-09 10:13:00,
2013-04-09 06:19:00,52.0,47.0,29.91,North,360,0.0,0.0,83,0.00,,,0.00,0,Wunderground v.1.15,2013-04-09 10:19:00,
2013-04-09 06:27:00,52.0,47.0,29.91,North,360,0.0,0.0,83,0.00,,,0.00,0,Wunderground v.1.15,2013-04-09 10:27:00,
2013-04-09 06:32:00,52.0,47.0,29.91,North,360,0.0,0.0,83,0.00,,,0.00,0,Wunderground v.1.15,2013-04-09 10:32:00,
2013-04-09 06:38:00,52.0,47.0,29.91,North,360,0.0,0.0,83,0.00,,,0.00,7,Wunderground v.1.15,2013-04-09 10:38:00,
2013-04-09 06:48:00,52.0,47.3,29.91,North,360,0.0,0.0,84,0.00,,,0.00,16,Wunderground v.1.15,2013-04-09 10:48:00,
2013-04-09 06:56:00,52.0,47.3,29.91,North,360,0.0,0.0,84,0.00,,,0.00,23,Wunderground v.1.15,2013-04-09 10:56:00,
2013-04-09 07:02:00,52.0,47.3,29.91,North,360,0.0,0.0,84,0.00,,,0.00,30,Wunderground v.1.15,2013-04-09 11:02:00,
2013-04-09 07:07:00,52.0,47.3,29.91,North,360,0.0,0.0,84,0.00,,,0.00,39,Wunderground v.1.15,2013-04-09 11:07:00,
2013-04-09 07:16:00,52.2,47.8,29.91,North,360,0.0,0.0,85,0.00,,,0.00,62,Wunderground v.1.15,2013-04-09 11:16:00,
2013-04-09 07:23:00,52.3,47.9,29.91,North,360,0.0,0.0,85,0.00,,,0.00,100,Wunderground v.1.15,2013-04-09 11:23:00,
2013-04-09 07:30:00,52.9,48.5,29.91,North,360,0.0,1.0,85,0.00,,,0.00,93,Wunderground v.1.15,2013-04-09 11:30:00,
2013-04-09 07:37:00,53.5,48.8,29.91,North,360,1.0,3.0,84,0.00,,,0.00,90,Wunderground v.1.15,2013-04-09 11:37:00,
2013-04-09 07:43:00,54.2,49.1,29.91,NNE,21,1.0,1.0,83,0.00,,,0.00,74,Wunderground v.1.15,2013-04-09 11:43:00,
2013-04-09 07:49:00,54.5,49.1,29.91,NNE,24,0.0,1.0,82,0.00,,,0.00,79,Wunderground v.1.15,2013-04-09 11:49:00,
2013-04-09 07:56:00,55.1,49.4,29.91,NNE,24,0.0,0.0,81,0.00,,,0.00,77,Wunderground v.1.15,2013-04-09 11:56:00,
2013-04-09 08:01:00,55.7,49.6,29.91,NNE,22,0.0,0.0,80,0.00,,,0.00,97,Wunderground v.1.15,2013-04-09 12:01:00,
2013-04-09 08:07:00,56.3,49.9,29.91,North,360,0.0,1.0,79,0.00,,,0.00,88,Wunderground v.1.15,2013-04-09 12:07:00,
2013-04-09 08:13:00,56.9,50.1,29.91,NNE,22,0.0,1.0,78,0.00,,,0.00,176,Wunderground v.1.15,2013-04-09 12:13:00,
2013-04-09 08:19:00,57.8,50.3,29.91,NNE,22,1.0,1.0,76,0.00,,,0.00,237,Wunderground v.1.15,2013-04-09 12:19:00,
2013-04-09 08:27:00,58.6,50.3,29.91,NNE,22,1.0,2.0,74,0.00,,,0.00,255,Wunderground v.1.15,2013-04-09 12:27:00,
2013-04-09 08:33:00,59.2,50.2,29.91,NNE,22,1.0,1.0,72,0.00,,,0.00,281,Wunderground v.1.15,2013-04-09 12:33:00,
2013-04-09 08:39:00,59.9,50.5,29.91,NNE,26,0.0,1.0,71,0.00,,,0.00,278,Wunderground v.1.15,2013-04-09 12:39:00,
2013-04-09 08:47:00,61.2,50.6,29.91,NNE,22,0.0,2.0,68,0.00,,,0.00,288,Wunderground v.1.15,2013-04-09 12:47:00,
2013-04-09 08:53:00,62.7,50.3,29.91,North,360,1.0,5.0,64,0.00,,,0.00,301,Wunderground v.1.15,2013-04-09 12:53:00,
2013-04-09 09:03:00,65.5,49.9,29.90,North,360,4.0,4.0,57,0.00,,,0.00,325,Wunderground v.1.15,2013-04-09 13:03:00,
2013-04-09 09:09:00,67.1,49.4,29.90,North,360,4.0,10.0,53,0.00,,,0.00,376,Wunderground v.1.15,2013-04-09 13:09:00,
2013-04-09 09:15:00,68.6,48.7,29.90,North,360,6.0,8.0,49,0.00,,,0.00,408,Wunderground v.1.15,2013-04-09 13:15:00,
2013-04-09 09:22:00,70.1,48.4,29.90,North,360,8.0,14.0,46,0.00,,,0.00,434,Wunderground v.1.15,2013-04-09 13:22:00,
2013-04-09 09:32:00,71.5,48.4,29.88,North,360,7.0,8.0,44,0.00,,,0.00,468,Wunderground v.1.15,2013-04-09 13:32:00,
2013-04-09 09:38:00,72.0,47.6,29.88,North,360,7.0,8.0,42,0.00,,,0.00,473,Wunderground v.1.15,2013-04-09 13:38:00,
2013-04-09 09:44:00,72.7,47.0,29.88,North,360,5.0,8.0,40,0.00,,,0.00,469,Wunderground v.1.15,2013-04-09 13:44:00,
2013-04-09 09:50:00,73.3,45.4,29.88,North,360,7.0,15.0,37,0.00,,,0.00,454,Wunderground v.1.15,2013-04-09 13:50:00,
2013-04-09 09:57:00,73.9,44.5,29.88,North,360,7.0,10.0,35,0.00,,,0.00,418,Wunderground v.1.15,2013-04-09 13:57:00,
2013-04-09 10:08:00,74.2,42.4,29.89,North,360,7.0,13.0,32,0.00,,,0.00,432,Wunderground v.1.15,2013-04-09 14:08:00,
2013-04-09 10:13:00,74.4,43.4,29.89,North,360,9.0,9.0,33,0.00,,,0.00,487,Wunderground v.1.15,2013-04-09 14:13:00,
2013-04-09 10:19:00,74.7,42.9,29.90,NNE,23,7.0,11.0,32,0.00,,,0.00,482,Wunderground v.1.15,2013-04-09 14:19:00,
2013-04-09 10:27:00,75.3,43.4,29.90,North,360,5.0,6.0,32,0.00,,,0.00,489,Wunderground v.1.15,2013-04-09 14:27:00,
2013-04-09 10:33:00,75.3,42.6,29.90,North,360,7.0,7.0,31,0.00,,,0.00,538,Wunderground v.1.15,2013-04-09 14:33:00,
2013-04-09 10:40:00,75.3,42.6,29.90,North,360,8.0,8.0,31,0.00,,,0.00,547,Wunderground v.1.15,2013-04-09 14:40:00,
2013-04-09 10:46:00,75.6,41.1,29.90,North,360,5.0,10.0,29,0.00,,,0.00,592,Wunderground v.1.15,2013-04-09 14:46:00,
2013-04-09 10:51:00,75.8,41.3,29.90,North,360,7.0,7.0,29,0.00,,,0.00,568,Wunderground v.1.15,2013-04-09 14:51:00,
2013-04-09 10:57:00,76.0,40.5,29.90,North,360,7.0,10.0,28,0.00,,,0.00,636,Wunderground v.1.15,2013-04-09 14:57:00,
2013-04-09 11:03:00,76.1,41.5,29.91,North,360,7.0,8.0,29,0.00,,,0.00,654,Wunderground v.1.15,2013-04-09 15:03:00,
2013-04-09 11:09:00,77.2,42.5,29.91,North,360,4.0,8.0,29,0.00,,,0.00,619,Wunderground v.1.15,2013-04-09 15:09:00,
2013-04-09 11:16:00,77.6,40.0,29.91,North,360,4.0,6.0,26,0.00,,,0.00,598,Wunderground v.1.15,2013-04-09 15:16:00,
2013-04-09 11:21:00,77.6,40.0,29.91,North,360,5.0,11.0,26,0.00,,,0.00,577,Wunderground v.1.15,2013-04-09 15:21:00,
2013-04-09 11:27:00,77.6,39.0,29.91,North,360,5.0,8.0,25,0.00,,,0.00,555,Wunderground v.1.15,2013-04-09 15:27:00,
2013-04-09 11:33:00,77.4,38.8,29.92,North,360,5.0,5.0,25,0.00,,,0.00,582,Wunderground v.1.15,2013-04-09 15:33:00,
2013-04-09 11:39:00,77.4,38.8,29.92,North,360,6.0,10.0,25,0.00,,,0.00,643,Wunderground v.1.15,2013-04-09 15:39:00,
2013-04-09 11:45:00,77.6,39.0,29.91,North,360,5.0,5.0,25,0.00,,,0.00,622,Wunderground v.1.15,2013-04-09 15:45:00,
2013-04-09 11:51:00,77.7,40.1,29.91,North,360,5.0,5.0,26,0.00,,,0.00,536,Wunderground v.1.15,2013-04-09 15:51:00,
2013-04-09 11:57:00,78.1,39.4,29.91,North,360,5.0,9.0,25,0.00,,,0.00,686,Wunderground v.1.15,2013-04-09 15:57:00,
2013-04-09 12:02:00,78.3,39.6,29.91,North,360,5.0,6.0,25,0.00,,,0.00,693,Wunderground v.1.15,2013-04-09 16:02:00,
2013-04-09 12:09:00,78.5,38.7,29.91,North,360,5.0,10.0,24,0.00,,,0.00,708,Wunderground v.1.15,2013-04-09 16:09:00,
2013-04-09 12:15:00,78.6,38.8,29.91,North,360,6.0,8.0,24,0.00,,,0.00,606,Wunderground v.1.15,2013-04-09 16:15:00,
2013-04-09 12:23:00,79.0,38.0,29.91,North,360,5.0,5.0,23,0.00,,,0.00,745,Wunderground v.1.15,2013-04-09 16:23:00,
2013-04-09 12:32:00,79.2,37.1,29.91,North,360,6.0,6.0,22,0.00,,,0.00,719,Wunderground v.1.15,2013-04-09 16:32:00,
2013-04-09 12:38:00,79.6,37.4,29.91,North,360,5.0,9.0,22,0.00,,,0.00,726,Wunderground v.1.15,2013-04-09 16:38:00,
2013-04-09 12:50:00,80.1,37.8,29.91,North,360,4.0,10.0,22,0.00,,,0.00,751,Wunderground v.1.15,2013-04-09 16:50:00,
2013-04-09 12:56:00,80.5,37.0,29.91,North,360,5.0,8.0,21,0.00,,,0.00,752,Wunderground v.1.15,2013-04-09 16:56:00,
2013-04-09 13:04:00,80.7,35.9,29.91,North,360,6.0,6.0,20,0.00,,,0.00,745,Wunderground v.1.15,2013-04-09 17:04:00,
2013-04-09 13:09:00,80.9,36.1,29.91,North,360,5.0,6.0,20,0.00,,,0.00,759,Wunderground v.1.15,2013-04-09 17:09:00,
2013-04-09 13:17:00,80.7,31.8,29.90,North,360,6.0,10.0,17,0.00,,,0.00,756,Wunderground v.1.15,2013-04-09 17:17:00,
2013-04-09 13:23:00,80.9,32.0,29.90,North,360,7.0,7.0,17,0.00,,,0.00,754,Wunderground v.1.15,2013-04-09 17:23:00,
2013-04-09 13:29:00,80.9,32.0,29.90,North,360,5.0,8.0,17,0.00,,,0.00,749,Wunderground v.1.15,2013-04-09 17:29:00,
2013-04-09 13:36:00,81.2,30.7,29.91,North,360,5.0,8.0,16,0.00,,,0.00,742,Wunderground v.1.15,2013-04-09 17:36:00,
2013-04-09 13:41:00,81.2,32.2,29.91,North,360,5.0,8.0,17,0.00,,,0.00,749,Wunderground v.1.15,2013-04-09 17:41:00,
2013-04-09 13:47:00,81.6,32.5,29.90,North,360,5.0,8.0,17,0.00,,,0.00,745,Wunderground v.1.15,2013-04-09 17:47:00,
2013-04-09 13:53:00,82.0,32.9,29.90,North,360,4.0,10.0,17,0.00,,,0.00,740,Wunderground v.1.15,2013-04-09 17:53:00,
2013-04-09 13:59:00,82.2,31.5,29.90,North,360,5.0,10.0,16,0.00,,,0.00,737,Wunderground v.1.15,2013-04-09 17:59:00,
2013-04-09 14:07:00,82.0,31.4,29.91,North,360,7.0,7.0,16,0.00,,,0.00,726,Wunderground v.1.15,2013-04-09 18:07:00,
2013-04-09 14:13:00,81.6,31.0,29.91,North,360,6.0,8.0,16,0.00,,,0.00,724,Wunderground v.1.15,2013-04-09 18:13:00,
2013-04-09 14:19:00,81.8,31.2,29.91,North,360,6.0,8.0,16,0.00,,,0.00,717,Wunderground v.1.15,2013-04-09 18:19:00,
2013-04-09 14:29:00,82.2,29.9,29.91,North,360,6.0,10.0,15,0.00,,,0.00,705,Wunderground v.1.15,2013-04-09 18:29:00,
2013-04-09 14:36:00,82.2,31.5,29.90,North,360,6.0,8.0,16,0.00,,,0.00,694,Wunderground v.1.15,2013-04-09 18:36:00,
2013-04-09 14:43:00,82.4,30.1,29.90,North,360,5.0,5.0,15,0.00,,,0.00,686,Wunderground v.1.15,2013-04-09 18:43:00,
2013-04-09 14:49:00,82.2,29.9,29.90,North,360,5.0,8.0,15,0.00,,,0.00,675,Wunderground v.1.15,2013-04-09 18:49:00,
2013-04-09 14:57:00,83.0,30.6,29.90,North,360,4.0,5.0,15,0.00,,,0.00,649,Wunderground v.1.15,2013-04-09 18:57:00,
2013-04-09 15:03:00,82.8,30.4,29.90,North,360,3.0,8.0,15,0.00,,,0.00,555,Wunderground v.1.15,2013-04-09 19:03:00,
2013-04-09 15:13:00,82.2,28.2,29.90,North,360,4.0,5.0,14,0.00,,,0.00,564,Wunderground v.1.15,2013-04-09 19:13:00,
2013-04-09 15:18:00,82.4,28.4,29.90,North,360,5.0,5.0,14,0.00,,,0.00,589,Wunderground v.1.15,2013-04-09 19:18:00,
2013-04-09 15:27:00,82.6,24.8,29.90,North,360,4.0,5.0,12,0.00,,,0.00,578,Wunderground v.1.15,2013-04-09 19:27:00,
2013-04-09 15:32:00,82.0,28.1,29.91,North,360,4.0,4.0,14,0.00,,,0.00,279,Wunderground v.1.15,2013-04-09 19:32:00,
2013-04-09 15:38:00,82.0,26.3,29.91,North,360,4.0,6.0,13,0.00,,,0.00,469,Wunderground v.1.15,2013-04-09 19:38:00,
2013-04-09 15:48:00,82.0,24.4,29.90,North,360,5.0,5.0,12,0.00,,,0.00,642,Wunderground v.1.15,2013-04-09 19:48:00,
2013-04-09 16:00:00,81.6,24.0,29.90,North,360,6.0,6.0,12,0.00,,,0.00,540,Wunderground v.1.15,2013-04-09 20:00:00,
2013-04-09 16:10:00,81.8,22.1,29.90,North,360,6.0,6.0,11,0.00,,,0.00,512,Wunderground v.1.15,2013-04-09 20:10:00,
2013-04-09 16:20:00,81.6,24.0,29.90,North,360,6.0,7.0,12,0.00,,,0.00,485,Wunderground v.1.15,2013-04-09 20:20:00,
2013-04-09 16:30:00,82.0,24.4,29.90,North,360,4.0,4.0,12,0.00,,,0.00,457,Wunderground v.1.15,2013-04-09 20:30:00,
2013-04-09 16:39:00,81.6,24.0,29.89,North,360,5.0,5.0,12,0.00,,,0.00,425,Wunderground v.1.15,2013-04-09 20:39:00,
2013-04-09 16:51:00,81.2,23.7,29.89,North,360,4.0,4.0,12,0.00,,,0.00,387,Wunderground v.1.15,2013-04-09 20:51:00,
2013-04-09 16:59:00,81.6,24.0,29.89,North,360,3.0,5.0,12,0.00,,,0.00,371,Wunderground v.1.15,2013-04-09 20:59:00,
2013-04-09 17:09:00,81.8,24.2,29.89,North,360,3.0,3.0,12,0.00,,,0.00,341,Wunderground v.1.15,2013-04-09 21:09:00,
2013-04-09 17:21:00,81.4,25.8,29.90,North,360,3.0,3.0,13,0.00,,,0.00,308,Wunderground v.1.15,2013-04-09 21:21:00,
2013-04-09 17:30:00,81.4,23.9,29.90,North,360,3.0,7.0,12,0.00,,,0.00,285,Wunderground v.1.15,2013-04-09 21:30:00,
2013-04-09 17:42:00,81.2,25.7,29.90,North,360,4.0,4.0,13,0.00,,,0.00,244,Wunderground v.1.15,2013-04-09 21:42:00,
2013-04-09 17:50:00,80.9,25.4,29.90,North,360,4.0,4.0,13,0.00,,,0.00,221,Wunderground v.1.15,2013-04-09 21:50:00,
2013-04-09 18:00:00,80.5,25.1,29.91,North,360,4.0,4.0,13,0.00,,,0.00,190,Wunderground v.1.15,2013-04-09 22:00:00,
2013-04-09 18:10:00,80.3,26.7,29.91,North,360,2.0,2.0,14,0.00,,,0.00,105,Wunderground v.1.15,2013-04-09 22:10:00,
2013-04-09 18:21:00,80.1,26.6,29.91,North,360,3.0,3.0,14,0.00,,,0.00,76,Wunderground v.1.15,2013-04-09 22:21:00,
2013-04-09 18:29:00,79.9,26.4,29.91,North,360,2.0,4.0,14,0.00,,,0.00,42,Wunderground v.1.15,2013-04-09 22:29:00,
2013-04-09 18:37:00,79.8,26.3,29.91,North,360,3.0,5.0,14,0.00,,,0.00,40,Wunderground v.1.15,2013-04-09 22:37:00,
2013-04-09 18:49:00,79.4,27.7,29.91,North,360,2.0,2.0,15,0.00,,,0.00,32,Wunderground v.1.15,2013-04-09 22:49:00,
2013-04-09 18:59:00,79.0,27.4,29.91,North,360,3.0,3.0,15,0.00,,,0.00,23,Wunderground v.1.15,2013-04-09 22:59:00,
2013-04-09 19:07:00,78.6,27.1,29.90,North,360,2.0,3.0,15,0.00,,,0.00,14,Wunderground v.1.15,2013-04-09 23:07:00,
2013-04-09 19:13:00,78.5,27.0,29.90,North,360,1.0,1.0,15,0.00,,,0.00,11,Wunderground v.1.15,2013-04-09 23:13:00,
2013-04-09 19:19:00,78.3,28.4,29.90,North,360,0.0,0.0,16,0.00,,,0.00,7,Wunderground v.1.15,2013-04-09 23:19:00,
2013-04-09 19:27:00,78.1,28.2,29.90,North,360,0.0,0.0,16,0.00,,,0.00,0,Wunderground v.1.15,2013-04-09 23:27:00,
2013-04-09 19:34:00,77.7,29.4,29.91,North,360,0.0,0.0,17,0.00,,,0.00,0,Wunderground v.1.15,2013-04-09 23:34:00,
2013-04-09 19:40:00,77.4,29.1,29.91,North,360,0.0,0.0,17,0.00,,,0.00,0,Wunderground v.1.15,2013-04-09 23:40:00,
2013-04-09 19:46:00,77.0,28.8,29.91,North,360,0.0,0.0,17,0.00,,,0.00,0,Wunderground v.1.15,2013-04-09 23:46:00,
2013-04-09 19:51:00,76.7,30.0,29.91,North,360,0.0,0.0,18,0.00,,,0.00,0,Wunderground v.1.15,2013-04-09 23:51:00,
2013-04-09 19:58:00,76.3,31.0,29.91,North,360,0.0,0.0,19,0.00,,,0.00,0,Wunderground v.1.15,2013-04-09 23:58:00,
2013-04-09 20:04:00,75.8,30.6,29.91,North,360,0.0,0.0,19,0.00,,,0.00,0,Wunderground v.1.15,2013-04-10 00:04:00,
2013-04-09 20:09:00,75.4,30.2,29.91,North,360,0.0,0.0,19,0.00,,,0.00,0,Wunderground v.1.15,2013-04-10 00:09:00,
2013-04-09 20:17:00,74.7,32.1,29.92,North,360,0.0,0.0,21,0.00,,,0.00,0,Wunderground v.1.15,2013-04-10 00:17:00,
2013-04-09 20:23:00,74.2,32.9,29.92,North,360,0.0,0.0,22,0.00,,,0.00,0,Wunderground v.1.15,2013-04-10 00:23:00,
2013-04-09 20:29:00,73.5,32.3,29.92,North,360,0.0,0.0,22,0.00,,,0.00,0,Wunderground v.1.15,2013-04-10 00:29:00,
2013-04-09 20:37:00,72.7,32.7,29.92,North,360,1.0,3.0,23,0.00,,,0.00,0,Wunderground v.1.15,2013-04-10 00:37:00,
2013-04-09 20:43:00,72.3,33.5,29.92,North,360,1.0,2.0,24,0.00,,,0.00,0,Wunderground v.1.15,2013-04-10 00:43:00,
2013-04-09 20:49:00,72.0,33.2,29.93,North,360,1.0,2.0,24,0.00,,,0.00,0,Wunderground v.1.15,2013-04-10 00:49:00,
2013-04-09 20:57:00,71.6,32.9,29.93,North,360,0.0,1.0,24,0.00,,,0.00,0,Wunderground v.1.15,2013-04-10 00:57:00,
2013-04-09 21:03:00,71.5,33.8,29.93,North,360,0.0,2.0,25,0.00,,,0.00,0,Wunderground v.1.15,2013-04-10 01:03:00,
2013-04-09 21:09:00,71.3,34.6,29.93,North,360,0.0,2.0,26,0.00,,,0.00,0,Wunderground v.1.15,2013-04-10 01:09:00,
2013-04-09 21:16:00,70.9,34.3,29.93,North,360,0.0,0.0,26,0.00,,,0.00,0,Wunderground v.1.15,2013-04-10 01:16:00,
2013-04-09 21:23:00,70.6,34.0,29.93,North,360,0.0,0.0,26,0.00,,,0.00,0,Wunderground v.1.15,2013-04-10 01:23:00,
2013-04-09 21:29:00,70.3,35.6,29.93,North,360,0.0,0.0,28,0.00,,,0.00,0,Wunderground v.1.15,2013-04-10 01:29:00,
2013-04-09 21:35:00,69.9,35.3,29.94,North,360,0.0,0.0,28,0.00,,,0.00,0,Wunderground v.1.15,2013-04-10 01:35:00,
2013-04-09 21:41:00,69.8,35.2,29.94,North,360,0.0,2.0,28,0.00,,,0.00,0,Wunderground v.1.15,2013-04-10 01:41:00,
2013-04-09 21:47:00,69.4,35.7,29.94,North,360,0.0,0.0,29,0.00,,,0.00,0,Wunderground v.1.15,2013-04-10 01:47:00,
2013-04-09 21:53:00,68.9,35.3,29.94,North,360,0.0,0.0,29,0.00,,,0.00,0,Wunderground v.1.15,2013-04-10 01:53:00,
2013-04-09 21:59:00,68.6,35.9,29.94,North,360,0.0,2.0,30,0.00,,,0.00,0,Wunderground v.1.15,2013-04-10 01:59:00,
2013-04-09 22:07:00,67.9,36.1,29.93,North,360,0.0,1.0,31,0.00,,,0.00,0,Wunderground v.1.15,2013-04-10 02:07:00,
2013-04-09 22:12:00,67.6,35.9,29.93,North,360,0.0,0.0,31,0.00,,,0.00,0,Wunderground v.1.15,2013-04-10 02:12:00,
2013-04-09 22:18:00,67.3,35.6,29.91,North,360,0.0,0.0,31,0.00,,,0.00,0,Wunderground v.1.15,2013-04-10 02:18:00,
2013-04-09 22:26:00,66.9,35.3,29.91,North,360,0.0,0.0,31,0.00,,,0.00,0,Wunderground v.1.15,2013-04-10 02:26:00,
2013-04-09 22:32:00,66.8,35.2,29.90,North,360,0.0,0.0,31,0.00,,,0.00,0,Wunderground v.1.15,2013-04-10 02:32:00,
2013-04-09 22:38:00,66.8,36.0,29.90,North,360,0.0,0.0,32,0.00,,,0.00,0,Wunderground v.1.15,2013-04-10 02:38:00,
2013-04-09 22:44:00,66.6,36.6,29.90,North,360,0.0,0.0,33,0.00,,,0.00,0,Wunderground v.1.15,2013-04-10 02:44:00,
2013-04-09 22:50:00,66.4,35.6,29.89,North,360,0.0,0.0,32,0.00,,,0.00,0,Wunderground v.1.15,2013-04-10 02:50:00,
2013-04-09 22:56:00,66.3,35.5,29.89,North,360,0.0,0.0,32,0.00,,,0.00,0,Wunderground v.1.15,2013-04-10 02:56:00,
2013-04-09 23:03:00,66.0,36.8,29.88,North,360,0.0,0.0,34,0.00,,,0.00,0,Wunderground v.1.15,2013-04-10 03:03:00,
2013-04-09 23:09:00,65.8,38.1,29.88,North,360,0.0,1.0,36,0.00,,,0.00,0,Wunderground v.1.15,2013-04-10 03:09:00,
2013-04-09 23:16:00,65.3,37.6,29.88,North,360,0.0,0.0,36,0.00,,,0.00,0,Wunderground v.1.15,2013-04-10 03:16:00,
2013-04-09 23:23:00,65.0,38.1,29.88,North,360,0.0,0.0,37,0.00,,,0.00,0,Wunderground v.1.15,2013-04-10 03:23:00,
2013-04-09 23:29:00,64.8,37.9,29.88,North,360,0.0,0.0,37,0.00,,,0.00,0,Wunderground v.1.15,2013-04-10 03:29:00,
2013-04-09 23:37:00,64.5,39.0,29.87,North,360,0.0,0.0,39,0.00,,,0.00,0,Wunderground v.1.15,2013-04-10 03:37:00,
2013-04-09 23:43:00,64.2,38.7,29.87,North,360,0.0,0.0,39,0.00,,,0.00,0,Wunderground v.1.15,2013-04-10 03:43:00,
2013-04-09 23:49:00,64.0,39.2,29.86,North,360,0.0,1.0,40,0.00,,,0.00,0,Wunderground v.1.15,2013-04-10 03:49:00,
2013-04-09 23:56:00,63.9,39.1,29.86,North,360,0.0,0.0,40,0.00,,,0.00,0,Wunderground v.1.15,2013-04-10 03:56:00,